CAPE
6 0 0 17 1 3 5 384 781 698 264 139 406 433 304 698 624 549 451 548 324 457 696 581 606 812 1257 1322 1542 1378 969 1458 1276
239 1 0 22 0 1 2 36 646 750 362 164 199 306 440 619 958 555 281 304 976 913 719 667 598 1261 1216 1137 1077 1533 1165 827 911
29 16 0 33 1 4 51 43 774 806 392 292 148 223 800 816 731 748 596 586 721 678 960 987 1296 666 909 1170 1106 1086 1388 1056 1019
15 38 15 26 18 18 66 106 319 704 640 367 137 156 467 492 398 557 797 866 363 420 475 972 705 760 623 901 1085 1149 1119 1101 953
210 356 243 139 106 137 134 146 176 717 713 615 448 335 369 323 168 480 511 592 494 533 7 683 1181 886 510 161 781 927 837 1072 875
0 435 527 288 213 156 38 187 185 255 658 630 563 348 658 486 338 535 788 500 400 623 732 858 994 993 676 705 856 1020 1055 1261 1203
546 552 455 318 180 28 20 19 66 46 49 317 299 457 474 565 730 510 531 728 759 743 713 733 806 732 1088 1194 1012 862 1001 1048 1017
942 774 329 105 157 84 85 9 7 27 7 0 3 31 139 521 667 538 810 906 848 769 814 787 785 619 838 1220 1326 1235 984 1095 1151
484 608 493 241 94 77 12 0 0 0 17 0 0 0 0 175 506 613 457 678 721 809 603 625 760 732 824 677 779 853 667 635 806
291 315 414 365 273 197 67 2 0 0 3 20 0 0 0 0 726 681 604 604 662 664 711 875 922 860 835 887 1204 883 667 463 623
308 289 208 183 142 171 122 73 29 28 84 137 80 2 3 4 212 557 561 418 527 463 532 537 506 630 620 575 496 367 285 271 325
217 330 230 126 68 55 87 123 169 142 74 62 99 75 113 162 330 196 397 348 373 444 364 393 407 363 336 335 173 21 25 94 196
244 105 138 96 73 40 22 5 0 25 29 97 99 22 76 87 119 311 334 419 398 262 269 215 221 81 30 29 0 0 0 0 39
223 138 42 2 0 0 0 0 0 6 58 96 350 284 77 108 141 125 37 1 0 0 0 4 0 0 0 0 1 0 0 0 0
203 81 0 2 0 0 0 0 0 20 36 54 253 118 123 157 97 10 0 0 0 0 0 0 0 0 0 4 3 1 1 0 0
216 76 0 1 2 0 1 0 1 0 0 20 196 103 66 43 12 1 0 0 0 0 0 0 0 0 0 0 2 0 0 0 0
252 137 1 1 0 1 0 0 1 0 0 2 37 83 0 0 0 0 0 0 1 3 2 3 3 0 0 1 2 2 2 1 3
199 28 23 1 0 0 0 2 1 1 0 0 0 1 1 0 0 0 0 0 0 0 0 0 1 1 1 1 0 0 0 1 1
148 31 44 5 1 0 1 1 2 0 0 0 0 0 0 0 0 0 0 0 0 0 0 0 0 0 0 0 0 0 0 0 0
190 181 114 53 5 0 0 0 0 0 0 0 0 0 0 1 1 0 0 0 0 0 0 0 0 0 0 0 0 0 0 0 0
CIN
-30 -0 -0 -33 -11 -46 -14 -49 -47 -75 -125 -113 -60 -52 -56 -25 -24 -31 -30 -25 -23 -26 -29 -27 -26 -19 -20 -31 -26 -23 -26 -24 -29
-81 -2 -0 -132 -0 -9 -22 -29 -71 -105 -107 -115 -109 -80 -57 -28 -17 -30 -27 -35 -16 -9 -24 -25 -30 -22 -12 -17 -19 -20 -21 -22 -24
-95 -105 -0 -126 -23 -106 -98 -61 -56 -100 -110 -123 -135 -109 -51 -31 -27 -31 -33 -27 -19 -30 -24 -29 -28 -33 -28 -19 -11 -12 -8 -12 -17
-150 -52 -53 -57 -149 -92 -113 -36 -44 -74 -89 -101 -135 -131 -74 -55 -40 -33 -24 -27 -48 -51 -30 -16 -21 -30 -44 -27 -13 -8 -15 -12 -16
-49 -37 -41 -49 -71 -119 -82 -67 -64 -21 -64 -77 -104 -122 -91 -75 -67 -34 -28 -26 -47 -41 -55 -25 -24 -36 -43 -63 -36 -26 -15 -13 -14
-0 -48 -66 -109 -113 -149 -177 -91 -71 -126 -35 -60 -76 -100 -66 -46 -57 -34 -20 -35 -48 -45 -37 -36 -26 -31 -48 -44 -43 -22 -13 -7 -10
-14 -48 -116 -87 -57 -141 -181 -227 -198 -128 -20 -77 -69 -57 -67 -39 -24 -34 -30 -24 -23 -35 -35 -30 -25 -31 -20 -14 -17 -19 -13 -11 -19
-34 -52 -112 -170 -182 -190 -149 -145 -99 -111 -1 -0 -35 -112 -73 -43 -20 -13 -9 -11 -16 -26 -21 -23 -28 -26 -26 -15 -17 -16 -26 -16 -18
-107 -74 -92 -137 -143 -117 -141 -0 -0 -0 -161 -0 -0 -0 -0 -57 -32 -17 -13 -10 -11 -16 -14 -34 -36 -25 -25 -29 -22 -17 -27 -27 -24
-163 -139 -134 -123 -105 -121 -152 -87 -0 -0 -144 -119 -68 -0 -0 -0 -21 -14 -7 -6 -6 -13 -14 -12 -12 -20 -25 -26 -18 -27 -29 -30 -26
-158 -150 -153 -186 -184 -138 -153 -153 -196 -141 -16 -3 -79 -91 -25 -42 -47 -15 -21 -24 -20 -17 -25 -28 -33 -34 -35 -33 -37 -56 -67 -63 -42
-197 -183 -177 -225 -260 -223 -145 -113 -113 -90 -97 -76 -10 -0 -15 -9 -76 -79 -19 -25 -37 -40 -43 -36 -34 -30 -24 -19 -62 -68 -156 -114 -63
-93 -173 -181 -213 -221 -266 -206 -173 -3 -168 -105 -32 -56 -93 -84 -19 -10 -7 -8 -31 -42 -87 -85 -78 -71 -119 -151 -156 -0 -0 -0 -0 -124
-101 -144 -162 -86 -0 -0 -0 -0 -0 -226 -142 -94 -2 -16 -143 -73 -27 -56 -63 -24 -0 -0 -0 -154 -0 -0 -0 -0 -0 -0 -0 -0 -0
-122 -171 -0 -1 -0 -0 -0 -0 -0 -161 -177 -133 -40 -52 -107 -78 -90 -28 -0 -0 -0 -0 -0 -0 -0 -0 -0 -0 -0 -0 -0 -0 -0
-101 -136 -0 -0 -4 -0 -0 -0 -0 -0 -0 -77 -59 -68 -110 -150 -199 -49 -0 -0 -0 -0 -0 -0 -0 -0 -0 -0 -0 -0 -0 -0 -0
-92 -112 -28 -1 -0 -0 -0 -0 -0 -0 -0 -22 -93 -92 -0 -0 -0 -0 -0 -0 -0 -0 -0 -0 -0 -0 -0 -0 -0 -0 -0 -0 -0
-71 -172 -162 -3 -2 -0 -0 -0 -0 -0 -0 -0 -0 -0 -0 -0 -0 -0 -0 -0 -0 -0 -0 -0 -0 -0 -0 -0 -0 -0 -0 -0 -0
-98 -195 -152 -86 -7 -3 -0 -0 -0 -0 -0 -0 -0 -0 -0 -0 -0 -0 -0 -0 -0 -0 -0 -0 -0 -0 -0 -0 -0 -0 -0 -0 -0
-61 -70 -80 -115 -7 -1 -0 -0 -0 -0 -0 -0 -0 -0 -0 -0 -0 -0 -0 -0 -0 -0 -0 -0 -0 -0 -0 -0 -0 -0 -0 -0 -0
Wind_Speed
21 25 18 25 26 26 14 25 19 19 22 20 20 21 25 27 32 26 25 19 27 25 25 13 24 26 13 16 15 15 15 16 22
11 22 29 18 21 16 26 22 22 20 20 18 18 17 21 17 3 15 28 29 26 7 14 9 20 7 10 19 17 10 9 11 2
27 14 23 20 20 20 37 23 17 16 17 16 16 14 11 11 5 9 17 20 21 15 14 9 9 8 3 4 23 3 3 8 25
34 38 31 19 17 17 15 12 11 15 13 12 9 8 8 8 7 6 6 10 14 19 12 6 3 3 4 6 14 17 13 3 13
16 22 34 14 14 12 15 13 19 13 11 9 8 7 7 9 9 8 8 6 6 14 13 12 8 9 12 11 17 18 17 9 11
8 16 13 12 14 15 16 22 20 22 34 12 9 8 8 11 9 9 11 9 6 6 6 11 12 15 15 16 15 17 15 12 10
10 10 11 8 10 13 15 14 21 28 26 17 22 15 9 10 12 10 10 8 7 7 5 9 13 11 11 8 9 12 16 14 13
16 15 15 16 16 17 18 17 21 26 28 17 21 21 25 17 14 17 13 9 8 8 7 8 10 16 17 16 15 16 14 14 13
19 17 14 14 15 17 15 16 20 31 34 29 23 22 27 36 21 19 20 19 13 10 13 14 12 13 14 16 17 16 17 20 20
16 16 15 14 15 14 14 16 20 20 33 29 28 24 22 37 33 20 19 19 17 16 16 13 12 13 14 15 15 12 15 19 20
13 15 15 14 13 13 15 18 19 18 16 11 22 24 27 34 34 24 23 22 21 22 22 22 21 19 18 18 19 17 18 19 20
14 14 14 13 14 15 17 17 18 19 19 17 14 17 19 26 29 32 27 23 20 21 22 23 25 25 25 24 22 21 21 22 23
14 16 15 16 16 17 18 19 19 18 20 19 17 17 17 23 25 22 21 19 17 16 15 17 18 19 20 20 21 23 24 25 26
13 13 16 18 19 19 21 21 19 19 21 24 19 16 16 15 15 18 16 16 17 17 17 17 17 18 19 20 22 24 25 26 24
11 15 17 17 18 20 21 21 20 17 20 22 17 13 11 12 15 12 14 16 18 19 19 19 20 18 20 22 23 25 26 25 24
11 14 16 17 18 20 21 21 19 19 19 19 16 11 12 13 15 14 16 16 18 21 20 22 22 20 20 19 20 21 21 22 21
12 13 16 17 18 19 20 19 18 17 18 16 15 10 10 12 13 14 16 18 14 15 15 13 12 14 13 15 17 18 19 17 15
11 14 15 15 16 17 18 18 17 16 15 13 12 11 11 12 13 13 14 15 13 13 14 14 12 12 12 12 15 17 16 15 15
13 14 12 13 15 15 16 16 16 14 14 13 11 11 12 12 12 11 11 12 12 14 14 14 13 13 13 14 15 14 14 14 14
11 11 11 12 12 13 13 14 14 14 13 12 13 13 12 12 12 12 12 11 11 11 14 14 15 15 15 14 14 13 12 13 14
Wind_Direction
164 168 171 173 170 175 161 164 159 153 152 151 156 157 163 168 189 221 215 134 196 167 171 271 231 213 274 271 281 288 293 296 274
173 174 175 175 176 177 172 167 166 159 158 153 156 161 161 155 220 149 219 190 214 117 150 126 270 129 292 268 279 311 319 315 20
267 186 173 180 179 177 201 178 171 164 162 158 158 161 170 169 212 260 253 244 250 270 278 303 94 104 49 68 185 76 56 336 248
250 233 182 181 183 180 193 210 205 177 174 165 170 175 198 205 211 232 240 270 269 261 278 303 345 346 351 339 297 289 307 19 313
263 251 236 224 184 218 214 229 245 234 203 196 191 199 212 214 229 234 208 229 254 275 272 283 299 306 302 294 291 296 298 324 321
262 243 249 244 246 249 252 248 241 270 247 230 228 239 227 240 222 216 254 252 238 248 274 278 284 288 292 292 299 296 304 315 321
312 289 266 301 268 274 273 271 254 251 252 262 265 261 243 242 245 228 228 212 209 199 259 280 285 296 299 304 306 306 302 308 314
308 328 310 299 292 296 281 278 270 256 261 275 273 274 270 262 257 257 254 235 222 240 251 273 285 287 288 292 298 301 306 309 313
303 312 331 316 310 296 308 298 295 260 264 275 277 277 278 268 261 259 258 262 262 259 271 280 283 288 295 297 298 302 305 303 302
326 338 318 322 329 337 335 334 331 302 268 271 268 278 290 277 255 251 258 264 267 268 274 281 284 289 293 297 302 306 308 307 306
335 323 312 319 328 333 335 344 352 352 341 295 274 284 269 277 253 251 259 264 268 271 274 276 281 285 289 292 296 302 305 305 305
341 334 345 332 323 325 335 341 342 346 343 332 311 287 277 266 256 259 264 263 267 273 277 279 280 285 286 289 294 299 301 302 303
357 341 336 324 324 328 328 327 328 339 328 323 332 313 315 280 273 275 270 267 272 277 284 291 296 297 299 299 299 301 301 302 303
1 0 342 331 325 324 327 323 326 331 326 314 334 328 327 330 309 286 280 278 280 282 285 291 297 301 304 306 305 304 304 303 303
355 338 334 333 327 321 326 327 328 333 333 335 353 359 20 17 12 331 290 277 281 281 284 291 292 304 305 306 304 306 307 306 307
358 340 333 328 327 324 321 324 327 327 332 332 346 18 15 23 19 355 300 308 291 284 290 289 289 298 305 312 314 319 323 316 313
1 353 335 325 325 326 324 324 324 324 327 337 344 356 9 22 10 18 19 328 303 303 310 312 312 317 319 320 323 329 327 331 336
348 343 341 333 331 331 329 329 326 321 322 340 351 356 354 353 4 4 14 16 345 336 331 324 326 336 338 340 333 327 335 342 343
343 335 340 343 339 342 337 334 333 327 319 322 333 337 342 348 354 4 21 23 16 16 356 352 342 359 349 341 350 359 359 357 359
9 4 345 346 347 348 353 350 343 342 338 328 321 320 325 333 345 341 337 352 355 348 337 331 321 327 339 340 345 351 0 6 360